This demonstration page uses our WeatherBlox Daily Observations layout. Learn more.

40.92945, -100.16068

Hourly Observations for December 2, 2017

Temp ( °F °C ) Dew Point ( °F °C ) Humidity (%) Winds ( mph kmh ) Pressure ( in mb ) Visibility ( mi km ) Precip ( " mm )
12:15 am 00:15 Clear 28 -2.1 21 -6.3 73 73 WNW 7 11 30.24 1024 10 16.09344 0 0
12:35 am 00:35 Clear 26 -3.1 20 -6.8 76 76 NW 9 15 30.24 1024 10 16.09344 0 0
12:55 am 00:55 Clear 26 -3.1 19 -7.1 74 74 NNW 5 7 30.24 1024 10 16.09344 0 0
1:15 am 01:15 Clear 26 -3.5 19 -7.4 75 75 Calm 30.24 1024 10 16.09344 0 0
1:35 am 01:35 Clear 25 -3.9 18 -7.7 75 75 WNW 5 7 30.24 1024 10 16.09344 0 0
1:55 am 01:55 Clear 24 -4.5 18 -7.7 79 79 NW 7 11 30.27 1025 10 16.09344 0 0
2:15 am 02:15 Clear 24 -4.5 18 -7.6 79 79 NW 7 11 30.27 1025 10 16.09344 0 0
2:35 am 02:35 Clear 25 -4 19 -7.5 77 77 WNW 5 7 30.24 1024 10 16.09344 0 0
2:55 am 02:55 Clear 25 -3.9 19 -7.2 78 78 W 8 13 30.24 1024 10 16.09344 0 0
3:15 am 03:15 Clear 26 -3.4 19 -7.1 76 76 WNW 6 9 30.24 1024 10 16.09344 0 0
3:35 am 03:35 Clear 25 -4.1 19 -7.2 79 79 WNW 6 9 30.21 1023 10 16.09344 0 0
3:55 am 03:55 Clear 24 -4.4 19 -7.2 81 81 WNW 7 11 30.21 1023 10 16.09344 0 0
4:15 am 04:15 Clear 24 -4.3 19 -7.2 80 80 WNW 7 11 30.21 1023 10 16.09344 0 0
4:35 am 04:35 Clear 24 -4.3 19 -7.5 79 79 WNW 3 6 30.21 1023 10 16.09344 0 0
4:55 am 04:55 Clear 24 -4.6 18 -7.6 80 80 WNW 8 13 30.21 1023 10 16.09344 0 0
5:15 am 05:15 Clear 25 -4.1 19 -7.5 77 77 WNW 8 13 30.24 1024 10 16.09344 0 0
5:35 am 05:35 Clear 25 -4.1 19 -7.5 77 77 WNW 7 11 30.24 1024 10 16.09344 0 0
5:55 am 05:55 Clear 24 -4.2 19 -7.5 78 78 W 7 11 30.24 1024 10 16.09344 0 0
6:15 am 06:15 Clear 24 -4.5 18 -7.7 79 79 WNW 7 11 30.27 1025 10 16.09344 0 0
6:35 am 06:35 Clear 24 -4.5 18 -7.9 77 77 WNW 7 11 30.27 1025 10 16.09344 0 0
6:55 am 06:55 Clear 24 -4.6 18 -7.8 79 79 W 7 11 30.27 1025 10 16.09344 0 0
7:15 am 07:15 Clear 24 -4.3 19 -7.4 79 79 W 7 11 30.24 1024 10 16.09344 0 0
7:35 am 07:35 Partly Cloudy 25 -4.1 19 -7.1 80 80 W 6 9 30.24 1024 10 16.09344 0 0
7:55 am 07:55 Sunny 26 -3.5 20 -6.5 80 80 NW 5 7 30.27 1025 10 16.09344 0 0
8:15 am 08:15 Sunny 27 -2.9 21 -6 79 79 WNW 3 6 30.27 1025 10 16.09344 0 0
8:35 am 08:35 Partly Cloudy 29 -1.6 22 -5.5 75 75 WNW 5 7 30.27 1025 10 16.09344 0 0
8:55 am 08:55 Partly Cloudy 31 -0.7 22 -5.4 71 71 WNW 6 9 30.24 1024 10 16.09344 0 0
9:15 am 09:15 Sunny 32 0 23 -5.1 69 69 WNW 6 9 30.24 1024 10 16.09344 0 0
9:35 am 09:35 Sunny 34 1 23 -4.9 65 65 W 5 7 30.24 1024 10 16.09344 0 0
9:55 am 09:55 Sunny 37 2.7 25 -4 62 62 Calm 30.21 1023 10 16.09344 0 0
10:15 am 10:15 Sunny 39 4 25 -4.1 56 56 Calm 30.21 1023 10 16.09344 0 0
10:35 am 10:35 Sunny 42 5.5 24 -4.6 49 49 Calm 30.18 1022 10 16.09344 0 0
10:55 am 10:55 Sunny 44 6.9 25 -4.1 46 46 Calm 30.18 1022 10 16.09344 0 0
11:15 am 11:15 Sunny 47 8.2 24 -4.4 41 41 S 3 6 30.12 1020 10 16.09344 0 0
11:35 am 11:35 Sunny 50 9.8 23 -4.8 36 36 S 6 9 30.12 1020 10 16.09344 0 0
11:55 am 11:55 Sunny 51 10.6 24 -4.6 34 34 S 7 11 30.12 1020 10 16.09344 0 0
12:15 pm 12:15 Sunny 54 12.1 24 -4.5 31 31 S 7 11 30.09 1019 10 16.09344 0 0
12:35 pm 12:35 Sunny 56 13.4 19 -7.2 23 23 S 9 15 30.09 1019 10 16.09344 0 0
12:55 pm 12:55 Sunny 56 13.6 18 -7.6 22 22 SSW 12 19 30.06 1018 10 16.09344 0 0
1:15 pm 13:15 Sunny 56 13.6 19 -7 23 23 SSW 10 17 30.06 1018 10 16.09344 0 0
1:35 pm 13:35 Sunny 57 13.8 20 -6.5 24 24 S 9 15 30 1016 10 16.09344 0 0
1:55 pm 13:55 Sunny 57 14.1 21 -6 25 25 S 9 15 30 1016 10 16.09344 0 0
2:15 pm 14:15 Sunny 58 14.5 21 -5.9 24 24 S 10 17 30 1016 10 16.09344 0 0
2:35 pm 14:35 Sunny 58 14.5 21 -5.9 24 24 SSW 13 20 30 1016 10 16.09344 0 0
2:55 pm 14:55 Sunny 58 14.5 22 -5.7 24 24 SSW 13 20 30 1016 10 16.09344 0 0
3:15 pm 15:15 Sunny 58 14.2 23 -4.8 27 27 S 10 17 30 1016 10 16.09344 0 0
3:35 pm 15:35 Sunny 58 14.5 23 -5 26 26 S 10 17 30 1016 10 16.09344 0 0
3:55 pm 15:55 Sunny 57 14.1 22 -5.6 25 25 S 5 7 30 1016 10 16.09344 0 0
4:15 pm 16:15 Sunny 56 13.4 22 -5.3 27 27 SSW 7 11 30.03 1017 10 16.09344 0 0
4:35 pm 16:35 Sunny 55 12.5 23 -5 29 29 S 7 11 30.03 1017 10 16.09344 0 0
4:55 pm 16:55 Sunny 51 10.7 23 -5 33 33 S 8 13 30.03 1017 10 16.09344 0 0
5:15 pm 17:15 Clear 47 8.6 22 -5.7 36 36 SSE 8 13 30.06 1018 10 16.09344 0 0
5:35 pm 17:35 Clear 44 6.8 22 -5.3 42 42 S 9 15 30.09 1019 10 16.09344 0 0
5:55 pm 17:55 Clear 44 6.5 22 -5.6 42 42 SE 6 9 30.09 1019 10 16.09344 0 0
6:15 pm 18:15 Clear 45 7.3 23 -5.2 41 41 SE 7 11 30.06 1018 10 16.09344 0 0
6:35 pm 18:35 Clear 44 6.7 22 -5.3 42 42 SSE 9 15 30.09 1019 10 16.09344 0 0
6:55 pm 18:55 Clear 43 6.2 22 -5.5 43 43 SSE 9 15 30.09 1019 10 16.09344 0 0
7:15 pm 19:15 Clear 43 6 22 -5.3 45 45 SE 7 11 30.09 1019 10 16.09344 0 0
7:35 pm 19:35 Clear 43 6.3 22 -5.7 42 42 SE 5 7 30.09 1019 10 16.09344 0 0
7:55 pm 19:55 Clear 44 6.4 21 -6 41 41 SSE 5 7 30.09 1019 10 16.09344 0 0
8:15 pm 20:15 Clear 36 2.2 21 -5.9 55 55 ESE 3 6 30.12 1020 10 16.09344 0 0
8:35 pm 20:35 Clear 34 0.9 21 -6.1 60 60 Calm 30.15 1021 10 16.09344 0 0
8:55 pm 20:55 Clear 39 3.7 21 -6.3 48 48 Calm 30.12 1020 10 16.09344 0 0
9:15 pm 21:15 Clear 41 5 20 -6.6 43 43 S 6 9 30.09 1019 10 16.09344 0 0
9:35 pm 21:35 Clear 43 6.3 20 -6.6 39 39 S 7 11 30.09 1019 10 16.09344 0 0
9:55 pm 21:55 Clear 38 3.2 20 -6.5 49 49 S 5 7 30.12 1020 10 16.09344 0 0
10:15 pm 22:15 Clear 42 5.6 19 -7 40 40 SSE 7 11 30.09 1019 10 16.09344 0 0
10:35 pm 22:35 Clear 43 6 20 -6.6 40 40 S 8 13 30.09 1019 10 16.09344 0 0
10:55 pm 22:55 Clear 42 5.5 20 -6.5 42 42 SSE 7 11 30.09 1019 10 16.09344 0 0
11:15 pm 23:15 Clear 39 3.8 21 -6.3 48 48 SSE 5 7 30.12 1020 10 16.09344 0 0
11:35 pm 23:35 Clear 38 3.4 21 -6.1 50 50 E 5 7 30.12 1020 10 16.09344 0 0
11:55 pm 23:55 Clear 35 1.6 21 -6.1 57 57 E 5 7 30.12 1020 10 16.09344 0 0

Powered by AerisWeather